Temperature
20 20 19 19 19 19 19 18 18 18 17 17 17 17 17 16 16 16 16 16 16 16 16 16 16 16 16 15 15 15 15 15 15 15 15 15 14 14 14 14 14 14 14
20 20 19 19 19 19 19 18 18 18 17 17 17 17 16 16 16 16 16 16 16 16 16 15 15 15 15 15 15 15 15 15 15 15 15 15 14 14 14 14 14 14 14
20 20 19 19 19 19 18 18 18 18 17 17 17 17 16 16 16 16 16 16 16 16 16 15 15 15 15 15 15 15 15 15 15 15 15 15 15 14 14 14 14 14 13
21 20 19 19 19 19 18 18 18 18 17 17 17 17 16 16 16 16 16 16 16 16 15 15 15 15 15 15 15 15 15 15 15 15 15 15 15 15 14 14 13 13 13
21 20 20 19 19 18 18 18 18 18 17 17 17 17 16 16 16 16 16 15 15 15 15 15 15 15 15 15 15 15 15 15 15 15 15 15 15 15 15 14 13 13 13
21 21 20 19 19 18 18 18 18 18 17 17 17 17 17 16 16 16 16 16 16 15 15 15 15 15 15 15 15 15 15 15 15 15 15 15 15 15 15 14 14 13 13
21 21 20 19 19 18 18 18 18 17 17 17 17 17 17 16 16 16 16 16 16 15 15 15 15 15 15 15 15 15 15 15 15 15 15 15 14 14 14 14 14 13 13
21 20 20 19 19 18 18 18 17 17 17 17 17 17 17 17 16 16 16 16 16 16 16 15 15 15 15 15 15 15 15 15 15 15 14 14 14 14 14 14 14 13 13
21 20 20 19 19 18 18 17 17 17 17 17 17 17 17 17 17 16 16 16 16 16 16 15 15 15 15 15 15 15 15 15 15 14 14 14 14 14 14 14 14 14 13
21 20 20 19 18 18 18 18 17 17 17 17 17 17 17 16 16 16 16 16 16 16 15 15 15 15 15 15 15 15 15 14 14 14 14 14 14 14 14 14 14 14 13
21 20 20 19 18 18 18 18 17 17 17 17 17 17 17 16 16 16 16 16 16 16 15 15 15 15 15 15 15 14 14 14 14 14 14 14 14 14 13 13 13 13 13
21 20 20 19 18 18 18 17 17 17 17 17 17 17 16 16 16 16 16 16 16 16 15 15 15 15 15 15 14 14 14 14 14 14 14 13 13 13 13 13 13 13 12
21 20 20 19 18 18 18 17 17 17 17 17 17 16 16 16 16 16 16 16 16 16 15 15 15 15 15 14 14 14 14 14 14 13 13 13 13 13 13 13 13 12 12
21 20 19 19 18 18 18 17 17 17 17 17 16 16 16 16 16 16 16 16 16 15 15 15 15 15 14 14 14 14 14 14 13 13 13 13 13 13 13 12 12 12 12
20 20 19 19 18 18 17 17 17 17 17 16 16 16 16 16 16 15 15 15 15 15 15 15 15 14 14 14 14 14 14 13 13 13 13 13 13 13 12 12 12 12 12
20 20 19 19 18 18 17 17 17 17 16 16 16 16 16 15 15 15 15 15 15 15 15 15 15 14 14 14 14 14 14 13 13 13 13 13 13 13 12 12 12 12 11
20 20 19 18 18 18 17 17 17 16 16 16 16 15 15 15 15 15 15 15 15 15 15 15 14 14 14 14 14 13 13 13 13 13 12 12 12 12 12 12 12 11 11
20 19 19 18 18 18 17 17 17 16 16 16 16 15 15 15 15 15 15 15 14 14 14 14 14 14 14 14 13 13 13 13 13 12 12 12 12 12 12 12 11 11 11
19 19 19 18 18 18 17 17 17 16 16 16 15 15 15 15 15 15 14 14 14 14 14 14 14 14 13 13 13 13 13 13 12 12 12 12 12 12 12 11 11 11 11
19 19 18 18 18 18 17 17 17 16 16 16 15 15 15 15 15 14 14 14 14 14 14 13 13 13 13 13 13 13 13 12 12 12 12 12 12 12 11 11 11 11 11
18 18 18 18 17 17 17 17 17 16 16 16 15 15 15 15 14 14 14 14 13 13 13 13 13 13 13 13 13 13 12 12 12 12 12 12 11 11 11 11 11 10 10
18 17 17 17 17 17 17 17 16 16 16 15 15 15 15 14 14 14 13 13 13 13 13 13 13 13 13 13 13 12 12 12 12 12 12 11 11 11 11 11 10 10 10
17 17 17 17 17 17 16 16 16 16 16 15 15 15 14 14 14 13 13 13 13 13 13 13 13 13 13 13 12 12 12 12 11 11 11 11 11 11 10 10 10 10 9
17 17 16 16 16 16 16 16 16 15 15 15 14 14 14 13 13 13 13 13 13 13 12 12 12 12 12 12 12 12 12 11 11 11 11 10 10 10 10 10 10 9 9
16 16 16 16 15 15 15 15 15 15 15 14 14 14 13 13 13 13 12 12 12 12 12 12 12 12 12 12 12 12 12 11 11 11 10 10 10 10 10 9 9 9 9
16 15 15 15 15 15 15 15 15 14 14 14 14 13 13 13 13 12 12 12 12 12 12 12 12 12 12 12 12 11 11 11 11 10 10 10 10 9 9 9 9 9 8
Wind_Speed
9 8 7 7 7 5 6 6 6 5 4 3 3 3 3 2 3 4 6 7 8 7 6 4 4 4 4 4 4 4 4 3 3 4 4 4 4 5 4 5 6 8 10
10 9 8 7 6 6 6 7 6 5 5 4 4 3 3 3 3 3 5 6 6 7 5 4 3 4 4 4 4 4 2 1 1 2 2 2 2 3 4 4 5 5 8
11 11 9 8 6 6 5 5 6 6 6 5 3 4 3 2 3 3 2 4 6 6 5 4 4 3 4 3 2 3 3 1 1 1 2 2 2 1 2 4 5 5 4
10 11 10 9 8 6 6 6 5 6 7 6 4 5 4 3 2 3 3 3 4 4 4 4 4 3 3 3 2 3 2 2 1 2 3 3 3 2 2 2 3 5 5
10 11 10 9 8 7 6 6 5 6 6 6 5 4 4 3 3 3 4 3 2 3 4 3 3 4 3 3 4 4 4 2 2 2 2 3 3 2 3 2 2 3 4
9 9 10 8 7 7 6 5 4 5 5 6 7 6 5 4 4 4 4 3 2 2 3 3 3 4 3 4 3 3 3 3 3 3 3 2 2 2 2 2 2 3 2
8 9 9 9 8 8 7 6 6 5 5 5 6 7 6 5 5 4 4 4 3 2 3 3 3 4 4 4 4 3 3 3 3 3 3 3 3 2 3 3 2 2 2
9 8 9 9 8 8 8 8 7 6 5 5 5 5 6 4 3 4 4 4 3 3 4 4 4 5 4 4 4 2 2 3 3 4 4 3 3 3 2 2 2 2 1
9 9 9 9 8 8 7 8 8 6 6 5 4 4 4 5 4 4 4 4 4 3 5 5 4 4 4 4 3 3 3 3 3 3 4 3 2 3 3 3 2 3 2
8 9 9 9 8 7 7 7 8 7 6 6 5 4 4 4 4 4 5 5 4 4 4 4 4 4 4 4 3 3 3 4 3 3 4 3 2 3 3 2 2 3 3
9 8 8 8 8 7 7 6 6 6 6 6 5 5 5 5 5 4 5 5 5 5 5 4 4 4 4 3 3 3 3 3 3 3 4 3 3 2 2 2 3 3 3
8 8 8 8 7 7 7 7 7 7 6 5 6 5 5 5 5 5 5 5 5 4 4 4 4 4 3 3 4 3 3 3 3 3 3 3 3 3 2 2 2 2 3
8 8 8 8 7 7 7 7 8 7 7 6 6 5 5 5 5 5 5 6 5 4 4 4 4 4 4 3 3 3 3 2 2 3 3 3 3 2 1 2 2 2 3
7 7 7 7 7 7 7 7 7 7 7 6 6 5 5 5 4 4 4 4 5 5 5 4 4 4 3 3 2 3 3 3 3 3 3 3 3 2 1 2 2 2 2
6 7 7 7 7 6 6 6 6 6 6 6 6 6 6 5 4 4 4 4 4 4 4 4 4 3 3 2 3 2 3 3 4 3 4 4 6 6 4 3 2 2 1
6 7 7 7 7 7 6 6 6 7 7 7 6 6 6 6 4 4 4 4 3 3 4 5 5 4 3 5 6 3 2 2 3 4 4 4 4 5 6 6 5 4 2
5 5 6 7 8 7 7 7 7 6 7 7 7 7 7 7 6 5 4 5 4 3 4 4 5 4 4 6 4 3 1 1 2 3 3 2 3 4 2 3 3 3 2
5 5 5 6 7 7 8 8 7 7 7 7 8 8 7 7 6 5 5 5 4 4 4 4 5 5 4 5 4 3 1 1 2 2 2 3 3 2 2 2 2 1 1
3 4 4 4 5 7 8 9 8 8 7 8 8 8 8 7 7 6 5 5 4 4 4 3 5 5 4 5 4 3 1 1 1 2 2 3 3 3 3 2 2 1 0
3 3 4 4 5 5 6 8 8 8 8 8 8 9 8 8 7 6 5 4 4 5 5 5 5 6 5 5 5 3 1 2 2 2 2 3 3 3 3 2 2 2 1
3 3 3 3 3 5 6 7 8 8 7 7 8 8 8 9 8 6 5 5 4 4 5 5 4 5 6 6 6 5 2 2 3 2 2 2 3 3 3 3 1 2 1
3 3 3 2 2 4 5 6 6 7 7 7 8 8 8 8 7 6 5 5 5 5 5 4 4 3 5 6 6 7 5 2 2 2 2 2 4 4 4 2 1 1 1
3 3 3 3 3 3 3 4 4 6 7 7 7 8 8 7 7 7 6 5 5 5 4 4 4 3 3 5 7 8 7 5 2 2 4 4 5 4 3 3 3 1 0
3 3 3 3 3 3 3 3 3 6 7 7 6 6 7 7 7 6 5 5 5 5 5 4 4 4 3 3 4 4 4 5 3 2 3 4 4 3 3 3 2 2 2
3 3 3 3 3 3 3 3 4 5 6 7 7 6 6 6 5 5 4 5 4 5 6 5 5 4 4 5 7 6 4 4 4 3 3 2 2 2 2 2 3 3 2
3 3 3 3 3 4 4 4 4 5 6 6 6 6 5 6 5 5 3 2 3 5 6 5 5 4 5 8 9 9 7 7 7 5 3 3 3 4 4 4 3 3 3
Wind_Direction
165 155 157 160 162 165 155 143 139 132 120 111 104 99 92 83 76 68 60 53 51 51 62 62 53 60 65 69 83 84 83 88 91 87 83 72 77 78 70 60 71 69 69
164 157 160 163 168 162 157 147 142 136 125 109 115 117 105 101 96 73 64 65 59 52 61 70 70 78 73 61 67 79 75 80 103 118 125 103 50 43 74 72 70 69 69
170 164 166 162 165 166 158 151 146 141 130 131 123 117 106 99 101 99 80 64 69 63 55 61 75 84 93 87 78 83 83 55 356 45 93 118 124 107 53 71 74 66 63
171 165 168 168 172 169 156 162 163 150 142 144 142 145 137 135 135 126 126 109 93 83 64 69 77 81 81 83 66 69 65 61 15 8 30 70 110 122 116 50 71 77 68
174 168 169 171 171 165 163 172 166 150 150 152 147 150 144 148 138 127 129 126 109 104 89 73 80 86 86 85 71 62 50 50 51 40 31 41 45 61 109 114 91 70 69
170 166 165 164 164 156 158 165 155 150 154 160 160 161 150 147 140 140 142 137 120 104 101 90 78 83 83 81 79 78 67 53 49 44 54 66 63 54 76 105 116 105 84
168 167 162 160 159 159 164 165 161 166 168 177 171 163 162 166 160 156 158 150 132 123 119 101 88 82 79 83 78 75 76 74 65 54 54 55 57 63 81 98 109 108 116
167 165 160 157 158 164 168 174 173 175 176 184 176 165 159 156 151 161 154 144 135 134 127 107 93 87 84 85 78 73 63 70 74 71 70 65 50 52 77 102 107 105 90
168 166 160 157 157 160 170 178 171 172 177 188 173 156 157 152 159 159 142 134 138 135 121 120 114 103 94 92 95 89 75 63 58 66 74 75 60 50 51 70 91 116 109
169 167 162 160 160 162 169 172 171 174 178 181 172 156 156 157 155 148 142 137 134 131 128 125 126 121 113 104 98 100 103 96 74 65 68 62 58 54 48 47 43 71 117
168 166 161 161 161 163 170 171 166 172 181 178 165 164 166 163 158 150 147 141 139 141 141 138 132 130 128 125 116 112 101 109 106 94 93 79 66 66 51 41 52 59 89
161 162 160 161 164 168 173 176 175 178 177 170 163 161 161 160 162 156 149 142 141 142 143 139 129 127 124 124 123 124 117 116 121 112 103 100 83 70 54 53 61 68 89
163 161 159 163 167 173 177 179 176 178 173 168 158 158 165 165 165 158 154 152 150 146 139 132 126 125 122 115 124 126 121 110 103 103 100 95 92 93 69 69 68 68 83
160 158 158 165 167 174 178 177 175 171 167 163 158 159 158 149 152 151 150 145 147 146 141 138 131 129 127 124 122 122 117 113 99 93 92 88 88 84 91 80 70 77 85
160 163 163 165 164 171 174 172 169 164 163 160 160 158 144 135 133 140 145 136 134 131 128 130 127 120 115 100 93 118 130 133 125 111 101 91 87 79 77 82 70 73 83
169 172 170 167 169 174 172 169 166 166 165 167 159 145 139 134 134 142 144 133 127 125 123 124 123 120 114 98 78 69 78 121 130 128 130 131 115 104 95 93 88 87 100
165 172 174 176 179 180 173 168 167 168 167 160 150 149 148 145 151 160 145 140 143 141 134 132 124 119 117 118 102 76 58 80 110 125 133 130 127 135 148 127 108 77 70
165 171 175 180 181 176 172 169 166 166 166 162 159 158 157 154 157 161 153 151 155 157 149 145 138 129 136 140 137 140 170 138 117 125 132 131 123 109 108 115 112 123 163
153 161 171 177 176 178 175 170 169 171 172 168 164 161 158 155 159 164 162 161 158 153 153 154 144 139 145 149 148 154 180 156 133 101 88 107 112 95 90 124 139 120 146
124 134 159 170 173 177 170 171 175 176 179 173 167 162 161 159 167 170 166 159 152 156 157 158 156 154 152 155 153 166 183 163 145 125 103 95 120 113 105 142 157 166 211
119 127 141 153 162 166 168 180 179 182 178 166 162 159 161 163 165 163 162 154 154 155 159 160 164 162 157 161 166 168 180 184 160 156 157 147 156 154 140 127 134 162 133
130 131 132 133 149 160 172 180 180 174 161 156 159 160 161 164 164 159 161 162 163 162 167 165 167 165 158 158 173 174 180 178 163 168 154 149 157 157 150 146 135 96 56
146 142 140 143 147 159 171 174 165 154 150 153 159 161 159 159 158 160 164 170 169 168 176 177 177 171 163 164 168 178 184 187 185 167 155 158 164 162 171 190 198 187 182
144 147 154 155 155 161 171 168 150 154 154 157 158 158 159 157 157 159 168 175 178 178 182 183 185 179 166 164 168 177 186 182 179 182 175 181 186 188 207 206 213 201 197
148 158 167 170 172 163 165 155 154 157 160 163 165 167 160 156 154 154 165 174 182 186 185 188 182 179 188 190 172 167 179 183 187 174 170 184 186 196 212 211 209 203 202
156 165 174 176 174 166 165 161 160 165 171 174 170 165 159 157 158 155 144 127 157 162 170 174 174 181 182 173 171 174 175 176 175 167 180 201 208 211 209 208 212 209 213
Height
1530 1532 1535 1537 1539 1541 1543 1545 1547 1548 1549 1550 1551 1552 1553 1553 1553 1554 1554 1554 1554 1554 1555 1555 1556 1556 1557 1557 1558 1559 1559 1560 1561 1561 1561 1562 1562 1562 1562 1562 1561 1561 1560
1528 1531 1534 1536 1538 1540 1543 1544 1546 1548 1549 1550 1551 1552 1553 1553 1554 1554 1554 1554 1554 1555 1555 1555 1556 1557 1557 1558 1559 1560 1560 1561 1561 1562 1562 1563 1564 1564 1564 1564 1563 1563 1562
1526 1529 1532 1535 1537 1539 1542 1543 1545 1547 1548 1549 1551 1552 1552 1553 1554 1554 1554 1555 1555 1555 1556 1556 1557 1557 1558 1559 1560 1561 1561 1561 1562 1562 1563 1563 1564 1564 1566 1565 1565 1564 1564
1523 1526 1530 1533 1535 1538 1540 1542 1544 1546 1547 1548 1550 1551 1552 1553 1554 1554 1555 1555 1556 1556 1557 1557 1557 1558 1559 1560 1560 1561 1561 1562 1562 1563 1563 1563 1564 1564 1566 1567 1566 1566 1565
1521 1524 1527 1531 1534 1536 1539 1541 1543 1544 1546 1547 1549 1550 1551 1552 1554 1554 1555 1555 1556 1557 1557 1558 1558 1559 1559 1560 1560 1561 1562 1562 1562 1563 1563 1564 1564 1565 1565 1567 1568 1567 1567
1518 1522 1525 1529 1532 1534 1537 1539 1541 1543 1544 1546 1548 1549 1550 1552 1553 1554 1555 1555 1556 1557 1557 1558 1559 1559 1560 1560 1561 1561 1562 1562 1562 1563 1564 1564 1564 1565 1566 1566 1567 1567 1568
1516 1520 1523 1526 1529 1532 1534 1537 1539 1541 1543 1545 1547 1548 1549 1551 1552 1553 1554 1555 1556 1557 1557 1558 1559 1559 1560 1560 1561 1561 1562 1562 1563 1563 1564 1564 1565 1565 1566 1566 1567 1568 1569
1514 1517 1521 1524 1527 1530 1532 1535 1537 1539 1541 1543 1545 1547 1548 1550 1551 1552 1554 1555 1556 1556 1557 1558 1559 1559 1560 1560 1561 1561 1562 1562 1563 1563 1564 1564 1565 1566 1566 1567 1567 1568 1569
1511 1515 1519 1522 1525 1527 1530 1533 1535 1537 1539 1541 1543 1545 1547 1548 1550 1551 1553 1554 1555 1556 1557 1558 1558 1559 1560 1560 1561 1561 1562 1562 1563 1563 1564 1564 1565 1565 1566 1567 1567 1568 1568
1510 1513 1517 1520 1523 1525 1528 1530 1533 1535 1537 1539 1542 1543 1545 1547 1548 1550 1552 1553 1554 1556 1557 1558 1558 1559 1560 1560 1561 1561 1562 1563 1563 1563 1564 1564 1565 1565 1566 1566 1567 1567 1567
1508 1511 1515 1518 1521 1523 1526 1528 1530 1533 1535 1537 1539 1541 1543 1545 1547 1549 1550 1552 1553 1555 1556 1557 1558 1559 1560 1560 1561 1561 1562 1562 1563 1563 1564 1564 1564 1565 1565 1566 1566 1566 1567
1506 1510 1513 1516 1519 1521 1524 1526 1528 1530 1533 1535 1537 1539 1541 1543 1545 1547 1549 1551 1552 1554 1555 1557 1558 1558 1559 1560 1560 1561 1561 1562 1563 1563 1563 1563 1564 1564 1565 1565 1565 1566 1566
1505 1508 1511 1514 1516 1519 1521 1524 1526 1528 1531 1533 1535 1537 1539 1541 1543 1545 1547 1549 1551 1553 1554 1556 1557 1558 1558 1559 1560 1560 1561 1561 1562 1562 1562 1563 1563 1563 1564 1564 1565 1565 1565
1503 1506 1509 1511 1514 1517 1519 1521 1523 1526 1528 1530 1532 1535 1537 1539 1542 1544 1546 1548 1549 1551 1553 1554 1555 1557 1558 1558 1559 1560 1560 1561 1561 1562 1562 1562 1562 1563 1563 1563 1564 1564 1564
1502 1504 1507 1509 1512 1514 1517 1519 1521 1523 1526 1528 1530 1532 1535 1537 1540 1542 1544 1546 1548 1549 1551 1553 1554 1555 1556 1557 1558 1559 1559 1560 1560 1560 1561 1561 1562 1562 1562 1562 1562 1562 1562
1500 1503 1505 1507 1510 1512 1514 1516 1519 1521 1523 1526 1528 1530 1533 1535 1537 1540 1542 1544 1546 1548 1549 1551 1552 1553 1555 1556 1556 1557 1558 1558 1559 1559 1559 1560 1560 1561 1561 1561 1561 1561 1561
1499 1501 1503 1505 1507 1509 1512 1514 1516 1519 1521 1524 1526 1528 1530 1533 1535 1538 1540 1542 1544 1546 1547 1549 1551 1552 1553 1554 1555 1556 1557 1557 1558 1558 1558 1559 1559 1559 1559 1559 1560 1560 1560
1496 1498 1501 1503 1505 1507 1510 1512 1514 1517 1519 1521 1523 1526 1528 1530 1533 1535 1537 1539 1542 1544 1545 1547 1549 1550 1551 1552 1553 1554 1555 1555 1556 1556 1557 1557 1557 1557 1557 1557 1558 1558 1558
1494 1496 1498 1501 1503 1505 1507 1510 1512 1515 1517 1519 1521 1523 1526 1528 1530 1533 1535 1537 1539 1541 1543 1545 1546 1548 1549 1550 1551 1552 1553 1554 1554 1555 1555 1555 1555 1556 1556 1556 1556 1556 1556
1492 1494 1496 1498 1500 1503 1505 1507 1509 1512 1514 1516 1518 1521 1523 1525 1528 1530 1533 1535 1537 1539 1540 1542 1544 1545 1547 1548 1549 1550 1551 1551 1552 1552 1553 1553 1553 1554 1554 1554 1554 1553 1554
1491 1492 1494 1496 1498 1500 1502 1504 1507 1509 1511 1514 1516 1518 1520 1523 1525 1528 1530 1532 1534 1536 1538 1540 1541 1543 1544 1545 1547 1548 1548 1549 1549 1550 1550 1551 1551 1551 1552 1552 1552 1552 1552
1489 1491 1492 1494 1496 1498 1500 1502 1504 1506 1509 1511 1513 1515 1518 1520 1522 1525 1527 1530 1532 1533 1535 1537 1538 1540 1541 1543 1544 1545 1546 1547 1547 1547 1548 1548 1549 1549 1550 1550 1550 1550 1549
1488 1489 1490 1492 1494 1496 1497 1499 1501 1504 1506 1508 1511 1513 1515 1517 1519 1521 1524 1526 1529 1530 1532 1533 1535 1536 1537 1539 1541 1542 1543 1544 1544 1545 1545 1546 1546 1546 1547 1547 1547 1547 1546
1486 1487 1489 1490 1492 1493 1495 1497 1499 1501 1503 1505 1508 1510 1512 1514 1516 1518 1521 1523 1525 1526 1528 1530 1531 1533 1534 1536 1537 1538 1539 1540 1541 1542 1542 1543 1543 1544 1544 1544 1544 1544 1543
1484 1486 1487 1488 1489 1491 1493 1495 1496 1498 1500 1502 1505 1507 1509 1511 1513 1515 1517 1519 1521 1523 1525 1526 1528 1529 1530 1532 1534 1535 1536 1537 1538 1539 1539 1540 1540 1540 1540 1540 1540 1540 1539
1483 1484 1485 1486 1488 1489 1490 1492 1494 1496 1497 1499 1501 1503 1506 1508 1510 1512 1514 1516 1518 1520 1522 1523 1525 1526 1528 1529 1530 1531 1532 1533 1534 1535 1535 1535 1536 1536 1536 1536 1536 1536 1535